Zurück zum Katalog

GORIZONT 10

AktivKommunikationGEO
NORAD 15144·PAYLOAD·🇷🇺 Russia

Gestartet Aug 1, 1984 von Baikonur Cosmodrome

Loading…

TLE

AktuellSource: Space-Track

Epoche: Sep 14, 2026, 12:31 UTC

1 15144U 84078A   26257.52211398  .00000082  00000-0  00000-0 0  9995
2 15144   8.7272 312.8583 0003578 327.7394  90.4618  1.00276023155472

Verfolge GORIZONT 10 in Echtzeit mit AllMySat

Download on the App Store